Voltar ao catálogo

STARLINK-37838

AtivoComunicaçõesSSO
NORAD 69654·PAYLOAD·🇺🇸 United States

Lançado Jun 21, 2026 de Vandenberg Space Force Base

Loading…

Próximas Passagens (próximas 24 horas)

TLE

AtualizadoSource: CelesTrak SupGP

Época: Sep 14, 2026, 23:06 UTC

1 69654C 26143F   26257.96298611  .00033703  00000+0  10464-2 0  2579
2 69654  97.2843 301.2772 0000959  94.1669  25.0150 15.33418303    10

Acompanhe STARLINK-37838 em tempo real com AllMySat

Download on the App Store